Location: Bon Acre
(42.6442°N, 73.5758°W)
Time: 08:47:15
(UTC+00:00)

ARIANE 6 FM1 Upper Stage - Pass Details

Date: 21 February 2026
Orbit: 523 x 607 km, 62.0° (Epoch: 7 March)

Event Time Altitude Azimuth Distance (km) Brightness Sun altitude
Rises 00:04:11 0° 310° (NW) 2,657 7.0 -17.5°
Reaches altitude 10° 00:06:38 10° 297° (WNW) 1,767 6.2 -17.9°
Maximum altitude 00:09:52 25° 242° (WSW) 1,102 4.8 -18.5°
Drops below altitude 10° 00:13:09 10° 186° (S) 1,776 5.2 -19.1°
Sets 00:15:37 0° 173° (S) 2,674 6.0 -19.6°
